STARLINK-32323, 61677

Orbit data source: Space-Track

STARLINK-32323, 61677 is a payload satellite owned by SpaceX/Seattle (US) in LEO that was launched on Sat, 26 Oct 2024 UTC via an FALCON 9 launch vehicle from the Air Force Eastern Test Range (AFETR). Payload-class satellites include a variety of spacecraft equipped with specific instruments for various scientific and technological missions. These include communications satellites like Starlink; space stations such as the ISS; scientific satellites like the Hubble; Earth observation satellites from companies like Planet Labs, Umbra, and HawkEye 360; GPS; miniature CubeSats for education and research; and military/defense satellites.

Loading next visibility...
Identifier
61677, 2024-193S
Orbit
LEO
Country
Flag of USUS
Related business
Manufacturer
SpaceX/Seattle
Mission
Operational Commercial Communications
Bus & Motor
STARLINK V2M, Unknown motor
Mass
730 kg wet, ~700 kg dry
Launch date (UTC)
2024-10-26 (2 years ago)
Launch vehicle
FALCON 9
Launch site
Air Force Eastern Test Range (AFETR)
Object type
Payload
Rocket body
Debris
Shape & HBR
Box + 2 Pan, 17.7 m
Radar Cross Section
33.884 m², Large (>1 m²)

Expand to show TLE details & history
Last TLE update: 10 hours ago

TLE from 10 hours ago
0 STARLINK-32323
1 61677U 24193S   26171.42986604  .00000037  00000-0  12232-4 0  9996
2 61677  53.1604 331.8785 0001582  73.4491 286.6685 15.34389664 92288
Epoch: 2026-06-20T10:19Z
TLE epoch observation values (Epoch: 2026-06-20T10:19:00.425Z)
Latitude
-0.00007°
Longitude
-91.51793°
Altitude
463.325 km
Speed
7.636 km/s
True Right ascension
22h 07m 30s
True Declination
0° 00' 00"
Sunlit
Object was in full shadow at epoch
Visualization orbit readout
Latitude
Unknown
Longitude
Unknown
Altitude
Unknown
Speed
Unknown
Apparent Right ascension
Unknown
Apparent Declination
Unknown
Sunlit
N/A
Visualization observer readout
Local Sidereal Time
07:18:43
Azimuth
Unknown
Elevation
Unknown
Doppler factor
Unknown
Orbital elements
Apogee altitude
464.073 km
Perigee altitude
461.909 km
Semi-major axis
6,841.128 km
Eccentricity
0.00016
Inclination
53.1604°
RAAN
331.8785°
Arg. of periapsis
73.4491°
True anomaly
286.65113°
Mean anomaly
286.6685°
Eccentric anomaly
286.65982°
Mean motion
3.83576 °/min
Orbital period
93.85 mins
BSTAR
0.000012232
Loading maneuver chart data...
Computing Atmospheric mass density...
Loading historical data...
Loading historical data...
Loading historical data...
Loading historical data...
Loading historical data...
Loading historical data...
Loading historical data...

Documentation

Showing up to 5 results
|